Content
SEND FEEDBACK

Daily
Averages
Monthly
Summary
China

XI'AN, CHINA


Home > Asia > China
Elevation: 1305 feet     Latitude: 34 18N     Longitude: 108 56E

WEATHER
 
SELECT A DAY
Number of Records: 147,013;   Date Range: 7/1/96 - 8/31/14
 
SHARE

PRINT THIS DATA

[ ← Previous Day ]
WEATHER ALMANAC - JANUARY 31, 2013
[ Next Day → ]
[ °C ]   °F
Weather ElementAverageHighLow
Temperature38.7 °F50 °F (3:00 pm)30.2 °F (6:00 am)
Dewpoint31.3 °F33.8 °F (12:00 pm)28.4 °F (1:00 am)
Humidity76.4 %93 % (6:00 am)54 % (3:00 pm)
Barometer30.05 in30.12 in (10:00 am)29.95 in (1:00 am)
Wind Speed5.8 mph13.4 mph (2:00 am)
Weather ElementAverage
Visibility0.9 mi
Wind DirectionESE (100.9 °)

Weather ElementTotal
Precipitation---
Heating Degree Days24.9 (Base 65)
Averaged from 23 records on January 31, 2013
WEATHER CONDITIONS BREAKOUT
WIND DIRECTION BREAKOUT
WEATHER BY HOUR - JANUARY 31, 2013
[ °C ]   °F
Local TimeTemperatureDewpointHumidityBarometerVisibilityWind DirectionWind SpeedGust SpeedPrecipitationEventsConditions
1:00 AM33.8 °F28.4 °F81 %29.95 in0.9 miNE (40°)6.7 mphMist
2:00 AM35.6 °F30.2 °F81 %29.95 in0.9 miNE (40°)13.4 mphMist
3:00 AM33.8 °F30.2 °F87 %29.95 in0.9 miNE (50°)11.2 mphMist
4:00 AM33.8 °F30.2 °F87 %29.95 in0.9 miENE (60°)6.7 mphMist
5:00 AM32.0 °F28.4 °F87 %29.95 in0.9 miNE (50°)6.7 mphMist
6:00 AM30.2 °F28.4 °F93 %29.95 in1.1 miNNE (30°)4.5 mphMist
7:00 AM32.0 °F30.2 °F93 %30.01 in1.1 miNW (310°)4.5 mphMist
8:00 AM30.2 °F28.4 °F93 %30.06 in0.8 miWSW (240°)4.5 mphMist
9:00 AM33.8 °F30.2 °F87 %30.09 in0.8 miWSW (250°)4.5 mphMist
10:00 AM35.6 °F30.2 °F81 %30.12 in0.8 miWNW (290°)4.5 mphMist
11:00 AM39.2 °F32.0 °F75 %30.12 in0.8 miVariable2.2 mphMist
12:00 PM42.8 °F33.8 °F70 %30.12 in0.8 miSSE (160°)4.5 mphSmoke
1:00 PM46.4 °F32.0 °F57 %30.06 in0.8 miSSW (200°)6.7 mphSmoke
2:00 PM48.2 °F33.8 °F58 %30.04 in0.8 miVariable4.5 mphSmoke
3:00 PM50.0 °F33.8 °F54 %30.04 in0.8 miSSE (160°)4.5 mphSmoke
4:00 PM50.0 °F33.8 °F54 %30.04 in0.8 miSE (130°)4.5 mphSmoke
5:00 PM50.0 °F33.8 °F54 %30.04 in0.9 miENE (60°)6.7 mphSmoke
6:00 PM44.6 °F32.0 °F61 %30.06 in0.9 miNE (40°)6.7 mphSmoke
7:00 PM39.2 °F32.0 °F75 %30.09 in0.9 miNE (50°)6.7 mphSmoke
8:00 PM39.2 °F32.0 °F75 %30.09 in0.9 miNE (40°)6.7 mphSmoke
9:00 PM39.2 °F33.8 °F81 %30.12 in0.9 miNE (50°)4.5 mphMist
10:00 PM35.6 °F32.0 °F87 %30.12 in0.9 miNNE (30°)4.5 mphMist
11:00 PM33.8 °F30.2 °F87 %30.12 in0.9 miNE (40°)4.5 mphMist
Hourly data recorded from ZLXY, located miles away from Xi'an, China







STORIES FROM OUR PARTNERS